This demonstration page uses our WeatherBlox Daily Observations layout. Learn more.

Left ArrowRight Arrow

Hourly Observations for February 16, 2017

Temp ( °F °C ) Dew Point ( °F °C ) Humidity (%) Winds ( mph kmh ) Pressure ( in mb ) Visibility ( mi km ) Precip ( " mm )
12:53 am 00:53 Clear 36 2.2 24 -4.4 62 62 SSE 6 9 30.11 1020 10 16 0.00 0.00
1:53 am 01:53 Clear 38 3.3 25 -3.9 60 60 SSE 7 11 30.10 1019 10 16 0.00 0.00
2:53 am 02:53 Clear 32 0 23 -5 69 69 NNE 3 6 30.10 1019 10 16 0.00 0.00
3:53 am 03:53 Clear 32 0 23 -5 69 69 Calm 30.08 1019 10 16 0.00 0.00
4:53 am 04:53 Clear 33 0.6 25 -3.9 72 72 NNE 3 6 30.06 1018 10 16 0.00 0.00
5:53 am 05:53 Clear 31 -0.6 24 -4.4 76 76 Calm 30.06 1018 10 16 0.00 0.00
6:53 am 06:53 Clear 31 -0.6 23 -5 72 72 Calm 30.06 1018 10 16 0.00 0.00
7:53 am 07:53 Sunny 31 -0.6 24 -4.4 76 76 NNE 3 6 30.07 1018 10 16 0.00 0.00
8:53 am 08:53 Sunny 39 3.9 26 -3.3 60 60 SSE 3 6 30.06 1018 10 16 0.00 0.00
9:27 am 09:27 Mostly Sunny N/A N/A N/A undefined N/A N/A N/A 0.00 0.00
9:53 am 09:53 Sunny 46 7.8 25 -3.9 44 44 SSE 6 9 30.06 1018 N/A 0.00 0.00
10:53 am 10:53 Sunny 52 11.1 25 -3.9 35 35 S 6 9 30.03 1017 10 16 0.00 0.00
11:53 am 11:53 Sunny 56 13.3 24 -4.4 29 29 SSE 8 13 30.00 1016 10 16 0.00 0.00
12:53 pm 12:53 Sunny 59 15 23 -5 25 25 S 9 15 29.97 1015 10 16 0.00 0.00
1:53 pm 13:53 Sunny 63 17.2 23 -5 22 22 S 8 13 29.91 1013 10 16 0.00 0.00
2:53 pm 14:53 Sunny 65 18.3 22 -5.6 19 19 SSW 8 13 29.89 1012 10 16 0.00 0.00
3:53 pm 15:53 Sunny 66 18.9 23 -5 19 19 SSW 12 19 29.87 1012 10 16 0.00 0.00
4:53 pm 16:53 Sunny 67 19.4 23 -5 19 19 SSW 7 11 29.85 1011 10 16 0.00 0.00
5:53 pm 17:53 Sunny 66 18.9 24 -4.4 20 20 SSE 9 15 29.84 1011 10 16 0.00 0.00
6:53 pm 18:53 Clear 57 13.9 25 -3.9 29 29 SSE 9 15 29.86 1011 10 16 0.00 0.00
7:53 pm 19:53 Clear 54 12.2 25 -3.9 33 33 SSE 9 15 29.85 1011 10 16 0.00 0.00
8:53 pm 20:53 Clear 53 11.7 27 -2.8 37 37 SE 10 17 29.85 1011 10 16 0.00 0.00
9:53 pm 21:53 Clear 48 8.9 29 -1.7 48 48 SSE 8 13 29.85 1011 10 16 0.00 0.00
10:53 pm 22:53 Clear 46 7.8 29 -1.7 51 51 SSE 9 15 29.84 1011 10 16 0.00 0.00
11:53 pm 23:53 Clear 45 7.2 31 -0.6 58 58 SE 9 15 29.83 1010 10 16 0.00 0.00

Powered by AerisWeather